Miscellaneous Local Product
Issued by NWS North Platte, NE

Home | Current Version | Previous Version | Graphics & Text | Print | Product List | Glossary On
Versions: 1 2 3 4 5 6 7 8 9 10 11 12 13 14 15 16 17 18 19 20 21 22 23 24 25 26 27 28 29 30 31 32 33 34 35 36 37 38 39 40 41 42 43 44 45 46 47 48 49 50
000
AXUS43 KLBF 301610
MISLBF


WESTERN AND NORTH CENTRAL NEBRASKA HOURLY WEATHER ROUNDUP
NATIONAL WEATHER SERVICE NORTH PLATTE NE
1100 AM CDT SAT MAY 30 2015

***STATIONS NOT REPORTING VARIABLES SUCH AS SKY/WEATHER OR
PRESSURE ARE PROVIDED BY THE NEBRASKA DEPARTMENT OF
ROADS...RAWS...AND APRS NETWORKS...AND ARE NOT UNDER
NATIONAL WEATHER SERVICE QUALITY CONTROL***

...OBSERVATIONS IN AND NEAR THE EASTERN PANHANDLE OF NEBRASKA...

CITY           SKY/WX    TMP DP  RH WIND       PRES   REMARKS
PINE RIDGE     SUNNY     53  39  59 SE9       30.29F
CHADRON        SUNNY     54  43  66 SE7       30.28F
ALLIANCE       PTSUNNY   51  41  68 SE7       30.29S
SIDNEY         CLOUDY    52  44  74 SE6       30.30F
WHITECLAY        N/A     52  37  57 E6          N/A
CRESCENT LAKE    N/A     54  42  62 E6          N/A
BIG SPRINGS      N/A     53  41  64 NE5         N/A
$$

...OBSERVATIONS IN NORTH CENTRAL NEBRASKA...

CITY           SKY/WX    TMP DP  RH WIND       PRES   REMARKS
VALENTINE      SUNNY     51  32  48 NE12      30.33F
THEDFORD       MOSUNNY   51  38  59 NE10      30.33S
AINSWORTH      SUNNY     50  37  59 N8        30.32F
O`NEILL        MOSUNNY   51  43  73 N9        30.31S
ORD            PTSUNNY   52  42  69 N13       30.28S
BROKEN BOW     SUNNY     54  35  48 N15G22    30.29S
BROWNLEE         N/A     52  32  46 N9          N/A
VALENTINE NWR    N/A     48  38  68 NE9         N/A
SPRINGVIEW       N/A     50  39  65 NE5         N/A
HALSEY           N/A     51  38  60 N6G13       N/A
NEWPORT          N/A     50  37  59 E6          N/A
SARGENT          N/A     52  41  65 NE3G12      N/A
CHAMBERS         N/A     57  42  57 N5G14       N/A
EWING            N/A     51  45  80 N6G13       N/A
$$

...OBSERVATIONS IN SOUTHWEST NEBRASKA AND FAR NORTHEAST COLORADO...

CITY           SKY/WX    TMP DP  RH WIND       PRES   REMARKS
WRAY           CLOUDY    52  43  71 CALM      30.33S
HOLYOKE        FAIR      54  41  62 N3        30.31F
IMPERIAL       SUNNY     53  39  59 N10       30.31F
OGALLALA       MOSUNNY   51  39  65 CALM      30.32S
NORTH PLATTE   MOSUNNY   52  37  56 N8        30.31F
MCCOOK         SUNNY     56  38  50 N18G26    30.30F
LEXINGTON      SUNNY     54  37  53 N10G20    30.29S
PAXTON           N/A     50  42  72 CALM        N/A
GOTHENBURG       N/A     51  33  50 N12         N/A
CALLAWAY         N/A     52  40  64 N12         N/A
$$

...NORTH PLATTE AREA...

CITY           SKY/WX    TMP DP  RH WIND       PRES   REMARKS
AIRPORT        MOSUNNY   52  37  56 N8        30.31F
DOWNTOWN         N/A     51  37  59 N5          N/A
$$

...SOME WEATHER OBSERVATIONS FROM AROUND THE REGION...

CITY           SKY/WX    TMP DP  RH WIND       PRES   REMARKS
DENVER         MOSUNNY   60  44  55 SE8       30.29F
LARAMIE        SUNNY     55  38  52 MISG      30.30S
CHEYENNE       SUNNY     58  43  57 S7        30.28S
SCOTTSBLUFF    CLOUDY    54  48  80 SE12      30.27S
RAPID CITY     MOSUNNY   52  40  63 SE16      30.27F
PIERRE         SUNNY     50  36  58 NE6       30.34F
WINNER         FAIR      52  34  50 NE12      30.34S
SIOUX FALLS    PTSUNNY   53  43  68 NE12      30.29R
OMAHA          CLOUDY    55  47  74 N18G24    30.18S
GRAND ISLAND   MOSUNNY   56  43  61 N17       30.26S
KANSAS CITY    CLOUDY    57  54  89 N14       30.10S
WICHITA        CLOUDY    57  47  69 N15G24    30.18R
HAYS           SUNNY     57  39  51 N20       30.25F
LIBERAL        CLOUDY    54  46  76 N15       30.31S
GOODLAND       CLOUDY    51  43  74 N12       30.32R
$$



USA.gov is the U.S. government's official web portal to all federal, state and local government web resources and services.